{"data":{"norad_id":54649,"epoch":"2026-05-25T01:03:05.984064Z","epoch_age_seconds":74497,"freshness":"FRESH","line1":"1 54649U 22166H   26145.04381926 -.00000020  00000+0 -80915-4 0  9996","line2":"2 54649  87.9251 248.5790 0002422  96.8640 263.2770 13.21824878168466","mean_motion":13.21824878,"eccentricity":0.0002422,"inclination_deg":87.9251,"raan_deg":248.579,"arg_perigee_deg":96.864,"mean_anomaly_deg":263.277,"bstar":-8.0915e-5,"rev_number":16846,"period_min":108.94030094053,"perigee_km":1175.9276064445,"apogee_km":1179.5876818101,"semimajor_km":7555.8946441273,"source":"CELESTRAK","updated_at":"2026-05-25T13:38:22.627746Z"}}